Regional Weather Roundup
Issued by NWS

Home | Current Version | Previous Version | Text Only | Print | Product List | Glossary Off
Versions: 1 2 3 4 5 6 7 8 9 10 11 12 13 14 15 16 17 18 19 20 21 22 23 24 25 26 27 28 29 30 31 32 33 34 35 36 37 38 39 40 41 42 43 44 45 46 47 48 49 50

000
ASUS43 KLSX 072010
RWRMO

WEATHER SUMMARY FOR MISSOURI
NATIONAL WEATHER SERVICE SPRINGFIELD MO
200 PM CST WED DEC 07 2016

NOTE: "FAIR" INDICATES FEW OR NO CLOUDS BELOW 12,000 FEET WITH NO
       SIGNIFICANT WEATHER AND/OR OBSTRUCTIONS TO VISIBILITY.
       CURRENT SKY AND/OR WEATHER CONDITIONS ARE NOT AVAILABLE FOR
       CHILLICOTHE AND FARMINGTON.

MOZ001>031-035>038-043-044-053-054-072100-
...NORTHERN AND WESTERN MISSOURI...

CITY           SKY/WX    TMP DP  RH WIND       PRES   REMARKS
KANSAS CTY INT LGT SNOW  25  17  72 NW9       30.31R WCI  15
KANSAS C DTWN  LGT SNOW  28  23  81 NW8       30.32R WCI  20
LEE`S SUMMIT   LGT SNOW  27  22  81 NW7       30.30R WCI  19
ST JOSEPH      CLOUDY    27  13  55 NW15      30.32F WCI  15
CHILLICOTHE      N/A     29  13  51 NW8       30.29R WCI  21
KIRKSVILLE     MOSUNNY   29  13  51 W12       30.23F WCI  19

$$
MOZ066>068-077>081-088>096-101>105-072100-
...SOUTHWEST MISSOURI...

CITY           SKY/WX    TMP DP  RH WIND       PRES   REMARKS
SPRINGFIELD    CLOUDY    37  12  35 N12       30.19S WCI  29
JOPLIN         CLOUDY    36  18  48 N10       30.23S WCI  28
BRANSON        CLOUDY    34  16  47 N3        30.18F

$$
MOZ032>034-039>042-045>050-055>058-069>072-072100-
...CENTRAL MISSOURI...

CITY           SKY/WX    TMP DP  RH WIND       PRES   REMARKS
COLUMBIA       CLOUDY    34  17  50 NW12      30.24F WCI  25
JEFFERSON CITY CLOUDY    36  18  48 NW12      30.25F WCI  28
ROLLA          CLOUDY    34  17  50 N10       30.20S WCI  26
SEDALIA        LGT SNOW  29  23  78 NW13      30.28F WCI  19
WHITEMAN AFB   LGT SNOW  28  28 100 NW8       30.28R FOG     WCI  20
WARRENSBURG    LGT SNOW  28  25  86 NW9       30.29F WCI  20
OSAGE BEACH    CLOUDY    35  14  42 VRB5      30.24F

$$
MOZ051-052-059>065-072100-
...EAST CENTRAL MISSOURI...

CITY           SKY/WX    TMP DP  RH WIND       PRES   REMARKS
ST LOUIS INTL  CLOUDY    38  16  40 NW8       30.23R
SPIRIT OF STL  CLOUDY    37  17  44 NW10      30.23R WCI  30
ST CHARLES     CLOUDY    36  19  50 W12       30.24R WCI  28

$$
MOZ072>076-082>087-097>100-106>115-072100-
...SOUTH CENTRAL AND SOUTHEAST MISSOURI...

CITY           SKY/WX    TMP DP  RH WIND       PRES   REMARKS
CAPE GIRARDEAU CLOUDY    41  22  46 NW6       30.19F
FARMINGTON     CLOUDY    36  17  46 N7        30.20R
POPLAR BLUFF   CLOUDY    42  19  39 NE6       30.19F
WEST PLAINS    CLOUDY    38  14  37 N6        30.18S

$$



USA.gov is the U.S. government's official web portal to all federal, state and local government web resources and services.